Flag for U.S.A. Weather past 2 weeks in Lincoln, Nebraska, U.S.A.

Now
58 °F

Partly sunny.


Feels Like: 56 °F
Forecast: 46 / 57 °F
Wind: 10 mph from Southeast

Location: Lincoln Municipal Airport

Current Time: Apr 24, 2015 at 9:48:00 PM

Latest Report: Apr 24, 2015 at 8:54 PM


Visibility: 8 mi

Pressure: 29.53 "Hg

Humidity: 87%

Dew point: 54 °F

Location of LincolnLocation

Historic Weather in Lincoln — Graph

°F

Lincoln temperature yesterday

Maximum temperature yesterday: 67 °F (at 4:54 PM)
Minimum temperature yesterday: 31 °F (at 5:54 AM)
Average temperature yesterday: 52 °F

Past Weeks' High & Low Weather Summary

 TemperatureHumidityPressure
High77 °F (Apr 12, 2:54 PM)96% (Apr 18, 9:54 AM)30.27 "Hg (Apr 18, 9:54 AM)
Low31 °F (Apr 22, 5:54 AM)20% (Apr 13, 1:54 PM)29.53 "Hg (Apr 24, 8:54 PM)
Average56 °F57%29.96 "Hg
* Reported Apr 9 8:54 PM — Apr 24 8:54 PM, Lincoln, Weather by CustomWeather, © 2015

Note: Actual official high and low records may vary slightly from our data, if they occured in-between our weather recording intervals... More about our weather records

Advertising

Lincoln weather history for previous 24 hours

 ConditionsComfort  
Time TempWeatherWind HumidityBarometerVisibility
8:54 PM
Fri, Apr 24
58 °FPartly sunny.10 mph87%29.53 "Hg8 mi
7:54 PM60 °FPartly sunny.9 mph80%29.54 "Hg7 mi
5:54 PM63 °FOvercast.10 mph73%29.58 "Hg8 mi
4:54 PM63 °FOvercast.12 mph70%29.59 "Hg9 mi
3:54 PM65 °FOvercast.12 mph68%29.59 "Hg9 mi
2:54 PM64 °FOvercast.13 mph73%29.62 "Hg8 mi
1:54 PM64 °FOvercast.12 mph70%29.64 "Hg9 mi
12:54 PM64 °FOvercast.10 mph70%29.66 "Hg9 mi
12:02 PM61 °FOvercast.12 mph72%29.71 "Hg9 mi
11:54 AM61 °FOvercast.13 mph75%29.70 "Hg9 mi
10:54 AM59 °FOvercast.13 mph78%29.72 "Hg8 mi
9:54 AM59 °FOvercast.17 mph72%29.72 "Hg9 mi
8:54 AM58 °FOvercast.20 mph72%29.73 "Hg10 mi
7:54 AM57 °FOvercast.15 mph67%29.75 "Hg10 mi
6:54 AM55 °FOvercast.13 mph69%29.75 "Hg10 mi
5:54 AM55 °FOvercast.10 mph64%29.76 "Hg10 mi
4:54 AM56 °FPassing clouds.10 mph55%29.80 "Hg10 mi
3:54 AM56 °FMostly cloudy.12 mph53%29.80 "Hg10 mi
2:54 AM56 °FMostly cloudy.10 mph51%29.82 "Hg10 mi
1:54 AM56 °FOvercast.12 mph51%29.87 "Hg10 mi
12:54 AM58 °FMostly cloudy.15 mph43%29.88 "Hg10 mi
11:54 PM
Thu, Apr 23
58 °FOvercast.13 mph41%29.89 "Hg10 mi
10:54 PM59 °FOvercast.14 mph38%29.90 "Hg10 mi
9:54 PM58 °FPartly cloudy.13 mph36%29.89 "Hg10 mi
Weather by CustomWeather, © 2015

See weather overviewHow to use our weather pages